| time (UTC) | temp F | wind direction | speed MPH | gust MPH | rain 1hr in | rain 24hr in | rain mn in | humidity % | barometer mb |
| 20260902192017 | 83 | 185 | 3.0 | 9.0 | 0.00 | 0.00 | 0.00 | 28 | 1000.6 |
| 20260902191006 | 80 | 193 | 0.0 | 5.0 | 0.00 | 0.00 | 0.00 | 36 | 1000.6 |
| 20260902190021 | 80 | 191 | 0.0 | 3.0 | 0.00 | 0.00 | 0.00 | 40 | 1000.8 |
| 20260902184951 | 80 | 185 | 0.0 | 0.0 | 0.00 | 0.00 | 0.00 | 41 | 1001.1 |
| 20260902182829 | 79 | 323 | 0.0 | 0.0 | 0.00 | 0.00 | 0.00 | 35 | 1001.4 |
| 20260902175508 | 79 | 179 | 0.0 | 4.0 | 0.00 | 0.00 | 0.00 | 39 | 1001.9 |
| 20260902174528 | 78 | 178 | 1.0 | 5.0 | 0.00 | 0.00 | 0.00 | 36 | 1001.9 |
| 20260902172415 | 77 | 193 | 0.0 | 3.0 | 0.00 | 0.00 | 0.00 | 40 | 1002.0 |
| 20260902171415 | 75 | 184 | 0.0 | 1.0 | 0.00 | 0.00 | 0.00 | 41 | 1002.2 |
| 20260902170353 | 73 | 183 | 0.0 | 1.0 | 0.00 | 0.00 | 0.00 | 45 | 1002.3 |
| 20260902165353 | 72 | 108 | 0.0 | 7.0 | 0.00 | 0.00 | 0.00 | 50 | 1002.5 |
| 20260902164336 | 71 | 4 | 0.0 | 1.0 | 0.00 | 0.00 | 0.00 | 50 | 1002.5 |
| 20260902163303 | 70 | 61 | 0.0 | 1.0 | 0.00 | 0.00 | 0.00 | 54 | 1002.7 |
| 20260902162306 | 69 | 112 | 0.0 | 3.0 | 0.00 | 0.00 | 0.00 | 56 | 1002.9 |
| 20260902161319 | 68 | 45 | 0.0 | 0.0 | 0.00 | 0.00 | 0.00 | 55 | 1002.9 |
| 20260902160339 | 67 | 359 | 0.0 | 0.0 | 0.00 | 0.00 | 0.00 | 62 | 1003.1 |
| 20260902152006 | 61 | 191 | 2.0 | 5.0 | 0.00 | 0.00 | 0.00 | 68 | 1003.6 |
| 20260902151007 | 59 | 192 | 2.0 | 5.0 | 0.00 | 0.00 | 0.00 | 72 | 1003.7 |
| 20260902144808 | 58 | 193 | 0.0 | 1.0 | 0.00 | 0.00 | 0.00 | 74 | 1004.2 |
| 20260902143830 | 57 | 193 | 0.0 | 3.0 | 0.00 | 0.00 | 0.00 | 75 | 1004.3 |
| 20260902142835 | 57 | 193 | 0.0 | 0.0 | 0.00 | 0.00 | 0.00 | 74 | 1004.3 |
| 20260902140758 | 56 | 193 | 1.0 | 4.0 | 0.00 | 0.00 | 0.00 | 73 | 1004.2 |
| 20260902135803 | 55 | 193 | 0.0 | 0.0 | 0.00 | 0.00 | 0.00 | 76 | 1004.1 |
| 20260902134752 | 53 | 193 | 0.0 | 2.0 | 0.00 | 0.00 | 0.00 | 78 | 1004.1 |
| 20260902133753 | 52 | 193 | 0.0 | 0.0 | 0.00 | 0.00 | 0.00 | 79 | 1004.3 |
| 20260902132744 | 52 | 193 | 0.0 | 2.0 | 0.00 | 0.00 | 0.00 | 80 | 1004.3 |
| 20260902131759 | 51 | 5 | 0.0 | 0.0 | 0.00 | 0.00 | 0.00 | 80 | 1004.2 |
| 20260902130735 | 51 | 14 | 0.0 | 0.0 | 0.00 | 0.00 | 0.00 | 80 | 1004.4 |
| 20260902125741 | 50 | 14 | 0.0 | 0.0 | 0.00 | 0.00 | 0.00 | 80 | 1004.5 |
| 20260902124746 | 50 | 18 | 0.0 | 0.0 | 0.00 | 0.00 | 0.00 | 80 | 1004.6 |
| 20260902123740 | 50 | 20 | 0.0 | 0.0 | 0.00 | 0.00 | 0.00 | 80 | 1004.7 |
| 20260902122747 | 50 | 18 | 0.0 | 0.0 | 0.00 | 0.00 | 0.00 | 80 | 1004.6 |
| 20260902121731 | 50 | 22 | 0.0 | 0.0 | 0.00 | 0.00 | 0.00 | 80 | 1004.5 |
| 20260902120755 | 50 | 20 | 0.0 | 0.0 | 0.00 | 0.00 | 0.00 | 81 | 1004.7 |
| 20260902115814 | 50 | 20 | 0.0 | 3.0 | 0.00 | 0.00 | 0.00 | 81 | 1005.0 |
| 20260902114813 | 50 | 21 | 0.0 | 0.0 | 0.00 | 0.00 | 0.00 | 81 | 1004.9 |
| 20260902113755 | 50 | 18 | 0.0 | 2.0 | 0.00 | 0.00 | 0.00 | 80 | 1005.1 |
| 20260902112728 | 50 | 22 | 0.0 | 0.0 | 0.00 | 0.00 | 0.00 | 80 | 1005.1 |
| 20260902111733 | 51 | 15 | 0.0 | 0.0 | 0.00 | 0.00 | 0.00 | 79 | 1005.2 |
| 20260902110739 | 51 | 18 | 0.0 | 0.0 | 0.00 | 0.00 | 0.00 | 79 | 1005.3 |
| 20260902105734 | 51 | 11 | 0.0 | 0.0 | 0.00 | 0.00 | 0.00 | 78 | 1005.4 |
| 20260902104738 | 51 | 5 | 0.0 | 2.0 | 0.00 | 0.00 | 0.00 | 77 | 1005.4 |
| 20260902101438 | 52 | 6 | 0.0 | 0.0 | 0.00 | 0.00 | 0.00 | 78 | 1005.2 |
| 20260902100447 | 52 | 4 | 0.0 | 0.0 | 0.00 | 0.00 | 0.00 | 78 | 1005.3 |
| 20260902093246 | 53 | 0 | 0.0 | 0.0 | 0.00 | 0.00 | 0.00 | 75 | 1004.9 |
| 20260902092241 | 53 | 356 | 0.0 | 0.0 | 0.00 | 0.00 | 0.00 | 75 | 1004.8 |
| 20260902085048 | 55 | 353 | 0.0 | 2.0 | 0.00 | 0.00 | 0.00 | 72 | 1004.6 |
| 20260902084052 | 55 | 355 | 0.0 | 2.0 | 0.00 | 0.00 | 0.00 | 71 | 1004.7 |
| 20260902083112 | 55 | 353 | 0.0 | 0.0 | 0.00 | 0.00 | 0.00 | 72 | 1004.6 |
| 20260902082103 | 56 | 354 | 0.0 | 0.0 | 0.00 | 0.00 | 0.00 | 71 | 1004.5 |
| 20260902081123 | 56 | 351 | 0.0 | 0.0 | 0.00 | 0.00 | 0.00 | 71 | 1004.6 |
| 20260902075033 | 57 | 351 | 0.0 | 0.0 | 0.00 | 0.00 | 0.00 | 69 | 1004.8 |
| 20260902074033 | 57 | 351 | 0.0 | 0.0 | 0.00 | 0.00 | 0.00 | 69 | 1004.9 |
| 20260902073031 | 58 | 352 | 0.0 | 0.0 | 0.00 | 0.00 | 0.00 | 68 | 1004.9 |
| 20260902070912 | 59 | 346 | 0.0 | 0.0 | 0.00 | 0.00 | 0.00 | 65 | 1004.8 |
| 20260902065931 | 60 | 345 | 0.0 | 0.0 | 0.00 | 0.00 | 0.00 | 64 | 1004.8 |
| 20260902064914 | 60 | 344 | 0.0 | 0.0 | 0.00 | 0.00 | 0.00 | 64 | 1004.7 |
| 20260902063840 | 61 | 342 | 0.0 | 0.0 | 0.00 | 0.00 | 0.00 | 62 | 1004.7 |
| 20260902062841 | 62 | 341 | 0.0 | 0.0 | 0.00 | 0.00 | 0.00 | 61 | 1004.7 |
| 20260902061829 | 62 | 340 | 0.0 | 0.0 | 0.00 | 0.00 | 0.00 | 59 | 1004.9 |
| 20260902060842 | 63 | 340 | 0.0 | 0.0 | 0.00 | 0.00 | 0.00 | 57 | 1005.0 |
| 20260902055855 | 64 | 340 | 0.0 | 0.0 | 0.00 | 0.00 | 0.00 | 57 | 1005.1 |
| 20260902053750 | 65 | 340 | 0.0 | 0.0 | 0.00 | 0.00 | 0.00 | 54 | 1005.2 |
| 20260902052737 | 66 | 339 | 0.0 | 0.0 | 0.00 | 0.00 | 0.00 | 52 | 1005.2 |
| 20260902051750 | 67 | 339 | 0.0 | 0.0 | 0.00 | 0.00 | 0.00 | 49 | 1005.2 |
| 20260902050806 | 68 | 340 | 0.0 | 0.0 | 0.00 | 0.00 | 0.00 | 48 | 1005.3 |
| 20260902045757 | 68 | 339 | 0.0 | 2.0 | 0.00 | 0.00 | 0.00 | 45 | 1005.4 |
| 20260902044807 | 68 | 340 | 1.0 | 4.0 | 0.00 | 0.00 | 0.00 | 45 | 1005.4 |
| 20260902043754 | 68 | 339 | 1.0 | 4.0 | 0.00 | 0.00 | 0.00 | 45 | 1005.6 |
| 20260902042802 | 69 | 339 | 1.0 | 7.0 | 0.00 | 0.00 | 0.00 | 45 | 1005.6 |
| 20260902041759 | 68 | 340 | 1.0 | 7.0 | 0.00 | 0.00 | 0.00 | 45 | 1005.6 |
| 20260902040739 | 68 | 339 | 0.0 | 0.0 | 0.00 | 0.00 | 0.00 | 46 | 1005.7 |
| 20260902035755 | 68 | 339 | 0.0 | 3.0 | 0.00 | 0.00 | 0.00 | 46 | 1005.6 |
| 20260902034728 | 69 | 339 | 0.0 | 4.0 | 0.00 | 0.00 | 0.00 | 45 | 1005.6 |
| 20260902033727 | 69 | 339 | 1.0 | 4.0 | 0.00 | 0.00 | 0.00 | 45 | 1005.5 |
| 20260902032656 | 69 | 339 | 0.0 | 0.0 | 0.00 | 0.00 | 0.00 | 46 | 1005.6 |
| 20260902031644 | 69 | 339 | 0.0 | 4.0 | 0.00 | 0.00 | 0.00 | 44 | 1005.5 |
| 20260902030646 | 70 | 338 | 0.0 | 4.0 | 0.00 | 0.00 | 0.00 | 45 | 1005.5 |
| 20260902025628 | 70 | 338 | 0.0 | 3.0 | 0.00 | 0.00 | 0.00 | 44 | 1005.4 |
| 20260902022424 | 71 | 338 | 0.0 | 4.0 | 0.00 | 0.00 | 0.00 | 43 | 1005.3 |
| 20260902021443 | 72 | 338 | 0.0 | 4.0 | 0.00 | 0.00 | 0.00 | 41 | 1005.2 |
| 20260902020428 | 72 | 338 | 0.0 | 0.0 | 0.00 | 0.00 | 0.00 | 39 | 1005.1 |
| 20260902015443 | 73 | 338 | 0.0 | 0.0 | 0.00 | 0.00 | 0.00 | 38 | 1005.0 |
| 20260902014423 | 73 | 338 | 0.0 | 0.0 | 0.00 | 0.00 | 0.00 | 37 | 1005.0 |
| 20260902013358 | 74 | 338 | 0.0 | 2.0 | 0.00 | 0.00 | 0.00 | 37 | 1005.0 |
| 20260902012340 | 74 | 338 | 0.0 | 2.0 | 0.00 | 0.00 | 0.00 | 37 | 1005.1 |
| 20260902011308 | 75 | 338 | 1.0 | 2.0 | 0.00 | 0.00 | 0.00 | 36 | 1005.1 |
| 20260902010244 | 76 | 338 | 0.0 | 2.0 | 0.00 | 0.00 | 0.00 | 35 | 1005.1 |
| 20260902005305 | 77 | 340 | 0.0 | 2.0 | 0.00 | 0.00 | 0.00 | 34 | 1005.0 |
| 20260902004242 | 77 | 342 | 0.0 | 0.0 | 0.00 | 0.00 | 0.00 | 33 | 1005.0 |
| 20260902003218 | 77 | 341 | 0.0 | 0.0 | 0.00 | 0.00 | 0.00 | 34 | 1005.0 |
| 20260902002229 | 77 | 340 | 0.0 | 0.0 | 0.00 | 0.00 | 0.00 | 34 | 1005.1 |
| 20260902001212 | 76 | 340 | 0.0 | 0.0 | 0.00 | 0.00 | 0.00 | 35 | 1005.0 |
| 20260902000204 | 76 | 341 | 0.0 | 0.0 | 0.00 | 0.00 | 0.00 | 34 | 1004.9 |
| 20260901235222 | 76 | 342 | 0.0 | 0.0 | 0.00 | 0.00 | 0.00 | 35 | 1005.0 |
| 20260901234210 | 76 | 342 | 0.0 | 0.0 | 0.00 | 0.00 | 0.00 | 36 | 1005.1 |
| 20260901232051 | 77 | 355 | 0.0 | 3.0 | 0.00 | 0.00 | 0.00 | 37 | 1005.3 |
| 20260901231029 | 77 | 344 | 0.0 | 2.0 | 0.00 | 0.00 | 0.00 | 38 | 1005.4 |
| 20260901230010 | 76 | 340 | 0.0 | 1.0 | 0.00 | 0.00 | 0.00 | 41 | 1005.4 |
| 20260901223748 | 76 | 337 | 0.0 | 0.0 | 0.00 | 0.00 | 0.00 | 38 | 1005.9 |
| 20260901222747 | 77 | 338 | 0.0 | 0.0 | 0.00 | 0.00 | 0.00 | 36 | 1006.1 |
| 20260901221748 | 77 | 338 | 0.0 | 4.0 | 0.00 | 0.00 | 0.00 | 31 | 1006.2 |
| 20260901220727 | 77 | 338 | 0.0 | 2.0 | 0.00 | 0.00 | 0.00 | 37 | 1006.3 |
| 20260901215717 | 77 | 339 | 0.0 | 2.0 | 0.00 | 0.00 | 0.00 | 31 | 1006.4 |
| 20260901214645 | 77 | 340 | 0.0 | 2.0 | 0.00 | 0.00 | 0.00 | 35 | 1006.4 |
| 20260901212500 | 80 | 30 | 0.0 | 1.0 | 0.00 | 0.00 | 0.00 | 33 | 1006.5 |
| 20260901211443 | 80 | 56 | 0.0 | 2.0 | 0.00 | 0.00 | 0.00 | 33 | 1006.5 |
| 20260901210501 | 80 | 59 | 0.0 | 3.0 | 0.00 | 0.00 | 0.00 | 32 | 1006.5 |
| 20260901205515 | 81 | 190 | 0.0 | 6.0 | 0.00 | 0.00 | 0.00 | 29 | 1006.5 |
| 20260901204533 | 81 | 191 | 0.0 | 2.0 | 0.00 | 0.00 | 0.00 | 27 | 1006.4 |
| 20260901203547 | 82 | 194 | 0.0 | 2.0 | 0.00 | 0.00 | 0.00 | 29 | 1006.5 |
| 20260901202533 | 81 | 194 | 0.0 | 4.0 | 0.00 | 0.00 | 0.00 | 29 | 1006.7 |
| 20260901201527 | 81 | 193 | 1.0 | 5.0 | 0.00 | 0.00 | 0.00 | 26 | 1006.8 |
| 20260901200455 | 81 | 194 | 1.0 | 5.0 | 0.00 | 0.00 | 0.00 | 26 | 1006.9 |
| 20260901195446 | 81 | 194 | 1.0 | 6.0 | 0.00 | 0.00 | 0.00 | 30 | 1006.9 |
| 20260901194452 | 80 | 194 | 0.0 | 6.0 | 0.00 | 0.00 | 0.00 | 30 | 1007.1 |
| 20260901193458 | 80 | 194 | 1.0 | 4.0 | 0.00 | 0.00 | 0.00 | 30 | 1007.3 |